Flag for Portugal Weather past 2 weeks in Guimarães, Portugal

Now
63 °F

Mild.


Feels Like: 63 °F
Forecast: 63 / 93 °F
Wind: 2 mph from Southwest

Location: Porto / Pedras Rubras

Current Time: Aug 31, 2014 at 3:46:33 AM

Latest Report: Aug 31, 2014 at 2:00 AM


Visibility: N/A

Pressure: 30.01 "Hg

Humidity: 85%

Dew point: 58 °F

Location of GuimarãesLocation

Historic Weather in Guimarães — Graph

°F

Guimarães temperature yesterday

Maximum temperature yesterday: 76 °F (at 6:00 PM)
Minimum temperature yesterday: 60 °F (at 12:00 AM)
Average temperature yesterday: 67 °F

Past Weeks' High & Low Weather Summary

 TemperatureHumidityPressure
High85 °F (Aug 17, 12:00 PM)94% (Aug 21, 3:00 AM)30.16 "Hg (Aug 21, 3:00 AM)
Low54 °F (Aug 16, 5:00 AM)26% (Aug 17, 11:00 AM)29.85 "Hg (Aug 18, 4:00 AM)
Average66 °F76%30.05 "Hg
* Reported Aug 16 2:00 AM — Aug 31 2:00 AM, Guimarães, Weather by CustomWeather, © 2014

Note: Actual official high and low records may vary slightly from our data, if they occured in-between our weather recording intervals... More about our weather records

Advertising

Guimarães weather history for previous 24 hours

 ConditionsComfort  
Time TempWeatherWind HumidityBarometerVisibility
2:00 AM
Aug 31
63 °FMild.2 mph85%30.01 "HgN/A
1:00 AM63 °FMild.No wind86%30.01 "HgN/A
12:00 AM64 °FMild.2 mph86%30.01 "HgN/A
11:00 PM
Aug 30
65 °FMild.2 mph82%30.01 "HgN/A
10:00 PM65 °FMild.1 mph84%30.02 "HgN/A
9:00 PM64 °FMild.1 mph82%30.01 "HgN/A
8:00 PM65 °FMild.2 mph80%30.01 "HgN/A
7:00 PM74 °FMild.2 mph52%29.99 "HgN/A
6:00 PM76 °FMild.3 mph44%29.99 "HgN/A
5:00 PM75 °FMild.3 mph52%30.00 "HgN/A
4:00 PM73 °FMild.5 mph54%30.01 "HgN/A
3:00 PM72 °FMild.5 mph64%30.02 "HgN/A
2:00 PM74 °FMild.3 mph58%30.01 "HgN/A
1:00 PM74 °FMild.3 mph58%30.02 "HgN/A
12:00 PM72 °FMild.2 mph67%30.04 "HgN/A
11:00 AM69 °FMild.3 mph71%30.04 "HgN/A
10:00 AM71 °FMild.1 mph67%30.04 "HgN/A
9:00 AM65 °FMild.1 mph81%30.04 "HgN/A
8:00 AM62 °FCool.1 mph87%30.04 "HgN/A
7:00 AM61 °FCool.No wind87%30.03 "HgN/A
6:00 AM61 °FCool.2 mph87%30.02 "HgN/A
5:00 AM60 °FCool.No wind85%30.02 "HgN/A
4:00 AM61 °FCool.No wind85%30.02 "HgN/A
3:00 AM61 °FCool.No wind83%30.02 "HgN/A
Weather by CustomWeather, © 2014

See weather overviewHow to use our weather pages